Lancaster, SC

9:29 PM EST on February 25, 2017 (GMT -0500)
Lancaster County-McWhirter

Weather History for KLKR - January, 2013

Change the Weather History Date:

Thursday, January 31, 2013

  Actual Average (KUZA) Record (KUZA)
Temperature  
Mean Temperature 44 °F -  
Max Temperature 50 °F 54 °F 79 °F (1975)
Min Temperature 37 °F 32 °F 5 °F (1966)
Degree Days  
Heating Degree Days 22    
Moisture  
Dew Point 28 °F    
Average Humidity 56    
Maximum Humidity 100    
Minimum Humidity 30    
Precipitation  
Precipitation 0.00 in - - ()
Sea Level Pressure  
Sea Level Pressure 29.90 in    
Wind  
Wind Speed 12 mph (WSW)    
Max Wind Speed 21 mph    
Max Gust Speed 32 mph    
Visibility 10 miles    
Events Rain    
Averages and records for this station are not official NWS values.
T = Trace of Precipitation, MM = Missing Value Source: NWS Daily Summary

Daily Weather History Graph

Daily Weather History Graph

Search for Another Location

Airport or City:

Trip Planner

Search our weather history database for the weather conditions in past years. The results will help you decide how hot, cold, wet, or windy it might be!

Date:

Astronomy

Jan. 31, 2013 Rise Set
Actual Time 7:22 AM EST 5:51 PM EST
Civil Twilight 6:55 AM EST 6:18 PM EST
Nautical Twilight 6:25 AM EST 6:48 PM EST
Astronomical Twilight 5:55 AM EST 7:18 PM EST
Moon 10:37 PM EST (1/31) 9:34 AM EST (1/31)
Length of Visible Light 11h 22m
Length of Day
10h 29m
Waning Gibbous, 80% of the Moon is Illuminated
Jan 31
Waning Gibbous
Feb 3
Last Quarter
Feb 10
New
Feb 17
First Quarter
Feb 25
Full

Hourly Weather History & Observations

Time (EST) Temp. Windchill Dew Point Humidity Pressure Visibility Wind Dir Wind Speed Gust Speed Precip Events Conditions
12:15 AM 50.0 °F - 50.0 °F 100% 29.62 in 10.0 mi SW 8.1 mph - N/A Rain Light Rain
12:35 AM 50.0 °F - 50.0 °F 100% 29.62 in 10.0 mi SW 6.9 mph - N/A Rain Light Rain
12:55 AM 50.0 °F - 50.0 °F 100% 29.62 in 10.0 mi SW 12.7 mph 17.3 mph N/A Rain Light Rain
1:15 AM 50.0 °F - 48.2 °F 94% 29.63 in 10.0 mi SW 17.3 mph 27.6 mph N/A   Scattered Clouds
1:35 AM 50.0 °F - 48.2 °F 94% 29.64 in 10.0 mi SW 15.0 mph 24.2 mph N/A   Scattered Clouds
1:55 AM 50.0 °F - 46.4 °F 87% 29.63 in 10.0 mi SW 13.8 mph 28.8 mph N/A   Scattered Clouds
2:15 AM 50.0 °F - 46.4 °F 87% 29.64 in 10.0 mi SW 13.8 mph 24.2 mph N/A   Partly Cloudy
2:35 AM 50.0 °F - 44.6 °F 82% 29.65 in 10.0 mi SW 19.6 mph 29.9 mph N/A   Clear
2:55 AM 48.2 °F - 42.8 °F 82% 29.66 in 10.0 mi WSW 19.6 mph 27.6 mph N/A   Clear
3:15 AM 48.2 °F - 42.8 °F 82% 29.67 in 10.0 mi WSW 15.0 mph 31.1 mph N/A   Scattered Clouds
3:35 AM 48.2 °F - 41.0 °F 76% 29.69 in 10.0 mi WSW 20.7 mph 32.2 mph N/A   Mostly Cloudy
3:55 AM 46.4 °F 39.8 °F 39.2 °F 76% 29.71 in 10.0 mi SW 16.1 mph 26.5 mph N/A   Overcast
4:15 AM 46.4 °F 39.2 °F 35.6 °F 66% 29.72 in 10.0 mi WSW 18.4 mph 26.5 mph N/A   Scattered Clouds
4:35 AM 44.6 °F 38.1 °F 33.8 °F 66% 29.73 in 10.0 mi SW 13.8 mph 24.2 mph N/A   Clear
4:55 AM 44.6 °F 37.8 °F 33.8 °F 66% 29.74 in 10.0 mi WSW 15.0 mph 23.0 mph N/A   Clear
5:15 AM 42.8 °F 36.2 °F 33.8 °F 70% 29.75 in 10.0 mi WSW 12.7 mph 21.9 mph N/A   Clear
5:35 AM 42.8 °F 35.8 °F 32.0 °F 66% 29.77 in 10.0 mi WSW 13.8 mph 18.4 mph N/A   Clear
5:55 AM 41.0 °F 33.5 °F 32.0 °F 70% 29.78 in 10.0 mi WSW 13.8 mph 21.9 mph N/A   Clear
6:15 AM 41.0 °F 33.1 °F 32.0 °F 70% 29.79 in 10.0 mi WSW 15.0 mph 24.2 mph N/A   Clear
6:35 AM 41.0 °F 33.9 °F 32.0 °F 70% 29.81 in 10.0 mi West 12.7 mph 19.6 mph N/A   Clear
6:55 AM 41.0 °F 34.3 °F 30.2 °F 65% 29.83 in 10.0 mi WSW 11.5 mph - N/A   Clear
7:15 AM 39.2 °F 31.6 °F 30.2 °F 70% 29.85 in 10.0 mi WSW 12.7 mph - N/A   Clear
7:55 AM 39.2 °F 31.6 °F 28.4 °F 65% 29.88 in 10.0 mi WSW 12.7 mph 16.1 mph N/A   Clear
8:15 AM 39.2 °F 32.0 °F 28.4 °F 65% 29.90 in 10.0 mi WSW 11.5 mph - N/A Rain Light Rain
8:35 AM 39.2 °F 31.2 °F 26.6 °F 61% 29.91 in 10.0 mi West 13.8 mph - N/A Rain Light Rain
8:55 AM 41.0 °F 34.3 °F 26.6 °F 57% 29.92 in 10.0 mi West 11.5 mph - N/A Rain Light Rain
9:15 AM 41.0 °F 33.5 °F 26.6 °F 57% 29.94 in 10.0 mi West 13.8 mph 18.4 mph N/A Rain Light Rain
9:35 AM 42.8 °F 37.0 °F 26.6 °F 53% 29.95 in 10.0 mi West 10.4 mph - N/A Rain Light Rain
10:15 AM 44.6 °F 37.8 °F 24.8 °F 46% 29.95 in 10.0 mi WSW 15.0 mph 21.9 mph N/A   Clear
10:35 AM 44.6 °F 37.8 °F 24.8 °F 46% 29.96 in 10.0 mi West 15.0 mph - N/A Rain Light Rain
10:55 AM 46.4 °F 40.1 °F 24.8 °F 43% 29.96 in 10.0 mi West 15.0 mph 20.7 mph N/A Rain Light Rain
11:15 AM 46.4 °F 41.5 °F 24.8 °F 43% 29.96 in 10.0 mi West 10.4 mph 18.4 mph N/A Rain Light Rain
11:35 AM 46.4 °F 39.2 °F 23.0 °F 40% 29.96 in 10.0 mi WSW 18.4 mph 23.0 mph N/A Rain Light Rain
11:55 AM 48.2 °F - 24.8 °F 40% 29.96 in 10.0 mi West 10.4 mph - N/A Rain Light Rain
12:15 PM 48.2 °F - 24.8 °F 40% 29.96 in 10.0 mi WSW 10.4 mph 16.1 mph N/A Rain Light Rain
12:35 PM 48.2 °F - 23.0 °F 37% 29.95 in 10.0 mi WSW 13.8 mph 18.4 mph N/A Rain Light Rain
12:55 PM 48.2 °F - 19.4 °F 32% 29.95 in 10.0 mi West 16.1 mph 24.2 mph N/A Rain Light Rain
1:15 PM 48.2 °F - 21.2 °F 34% 29.96 in 10.0 mi WSW 18.4 mph 24.2 mph N/A   Clear
1:35 PM 48.2 °F - 19.4 °F 32% 29.94 in 10.0 mi West 13.8 mph 21.9 mph N/A   Clear
1:55 PM 48.2 °F - 19.4 °F 32% 29.95 in 10.0 mi WSW 19.6 mph 27.6 mph N/A   Clear
2:15 PM 50.0 °F - 19.4 °F 30% 29.95 in 10.0 mi West 19.6 mph 25.3 mph N/A   Clear
2:35 PM 50.0 °F - 19.4 °F 30% 29.95 in 10.0 mi West 18.4 mph 26.5 mph N/A   Clear
2:55 PM 50.0 °F - 19.4 °F 30% 29.96 in 10.0 mi West 10.4 mph 21.9 mph N/A   Clear
3:15 PM 50.0 °F - 19.4 °F 30% 29.97 in 10.0 mi West 19.6 mph 27.6 mph N/A   Clear
3:35 PM 50.0 °F - 19.4 °F 30% 29.97 in 10.0 mi West 20.7 mph 25.3 mph N/A   Clear
4:15 PM 50.0 °F - 19.4 °F 30% 29.98 in 10.0 mi WSW 11.5 mph 23.0 mph N/A   Clear
4:35 PM 50.0 °F - 19.4 °F 30% 29.99 in 10.0 mi WSW 16.1 mph 25.3 mph N/A   Clear
4:55 PM 50.0 °F - 19.4 °F 30% 29.99 in 10.0 mi West 15.0 mph 20.7 mph N/A   Clear
5:15 PM 48.2 °F - 19.4 °F 32% 29.99 in 10.0 mi West 10.4 mph 18.4 mph N/A   Clear
5:35 PM 48.2 °F - 19.4 °F 32% 30.00 in 10.0 mi West 8.1 mph 16.1 mph N/A   Clear
5:55 PM 46.4 °F 42.9 °F 19.4 °F 34% 30.00 in 10.0 mi WSW 6.9 mph - N/A   Clear
6:15 PM 44.6 °F 43.1 °F 23.0 °F 43% 30.01 in 10.0 mi SW 3.5 mph - N/A   Clear
6:35 PM 42.8 °F - 23.0 °F 46% 30.02 in 10.0 mi Calm Calm - N/A   Clear
6:55 PM 39.2 °F - 24.8 °F 56% 30.02 in 10.0 mi Calm Calm - N/A   Clear
7:15 PM 39.2 °F - 23.0 °F 52% 30.04 in 10.0 mi Calm Calm - N/A   Clear
7:35 PM 39.2 °F - 23.0 °F 52% 30.04 in 10.0 mi Calm Calm - N/A Rain Light Rain
7:55 PM 39.2 °F - 23.0 °F 52% 30.04 in 10.0 mi Calm Calm - N/A Rain Light Rain
8:15 PM 37.4 °F - 23.0 °F 56% 30.05 in 10.0 mi Calm Calm - N/A Rain Light Rain
8:35 PM 39.2 °F - 21.2 °F 49% 30.05 in 10.0 mi Calm Calm - N/A Rain Light Rain
8:55 PM 37.4 °F - 23.0 °F 56% 30.06 in 10.0 mi Calm Calm - N/A Rain Light Rain
9:15 PM 37.4 °F - 23.0 °F 56% 30.06 in 10.0 mi Calm Calm - N/A Rain Light Rain
9:35 PM 37.4 °F - 23.0 °F 56% 30.06 in 10.0 mi Calm Calm - N/A   Clear
9:55 PM 37.4 °F 34.9 °F 23.0 °F 56% 30.06 in 10.0 mi SSW 3.5 mph - N/A   Clear
10:15 PM 39.2 °F 35.0 °F 23.0 °F 52% 30.07 in 10.0 mi SW 5.8 mph - N/A   Clear
10:35 PM 39.2 °F 35.0 °F 23.0 °F 52% 30.08 in 10.0 mi SW 5.8 mph - N/A   Clear
10:55 PM 39.2 °F 33.6 °F 23.0 °F 52% 30.09 in 10.0 mi SW 8.1 mph - N/A   Clear
11:15 PM 39.2 °F 33.6 °F 23.0 °F 52% 30.09 in 10.0 mi SW 8.1 mph - N/A Rain Light Rain
11:35 PM 39.2 °F 34.2 °F 23.0 °F 52% 30.09 in 10.0 mi SW 6.9 mph - N/A Rain Light Rain
11:55 PM 39.2 °F 33.6 °F 23.0 °F 52% 30.09 in 10.0 mi SW 8.1 mph - N/A Rain Light Rain